Location: North Evanston
(42.0634°N, 87.6976°W)
Time: 21:49:52
(UTC+00:00)

Transit 2A - Pass Details

Date: 16 May 2026
Orbit: 595 x 948 km, 66.7° (Epoch: 9 June)

Event Time Altitude Azimuth Distance (km) Brightness Sun altitude
Rises 23:08:40 0° 264° (W) 3,554 10.9 19.8°
Reaches altitude 10° 23:12:23 10° 285° (WNW) 2,564 11.0 19.1°
Maximum altitude 23:15:51 16° 321° (NW) 2,132 9.2 18.5°
Drops below altitude 10° 23:19:11 10° 357° (N) 2,444 8.8 17.9°
Sets 23:22:37 0° 20° (NNE) 3,302 9.2 17.2°
